Tracking 30743 objects as of 21-Jun-2025
HD Live streaming from Space Station
objects crossing your sky now

COSMOS 1814 DEB *

Track COSMOS 1814 DEB * now!
10-day predictions


NORAD ID: 18257
Int'l Code: 1987-006C
Perigee: 668.0 km
Apogee: 674.6 km
Inclination: 74.0 °
Period: 98.0 minutes
Semi major axis: 7042 km
RCS: 0.0165 m2 (small)
Launch date: January 21, 1987
Source: Commonwealth of Independent States (former USSR) (CIS)
Launch site: PLESETSK MISSILE AND SPACE COMPLEX (PKMTR)

Note: This is SATELLITE DEBRIS
Your satellite tracking list
Your tracking list is empty




NASA's NSSDC Master Catalog

Two Line Element Set (TLE):
1 18257U 87006C   25171.54576711  .00002202  00000-0  38063-3 0  9995
2 18257  74.0349 307.0577 0004693 151.5575 208.5853 14.69017756101977
Source of the keplerian elements: AFSPC